Regional Weather Roundup
Issued by NWS

Current Version | Previous Version | Text Only | Print | Product List | Glossary On
Versions: 1 2 3 4 5 6 7 8 9 10 11 12 13 14 15 16 17 18 19 20 21 22 23 24 25 26 27
000
ASUS44 KLIX 281211
RWRLA
LOUISIANA WEATHER ROUNDUP
NATIONAL WEATHER SERVICE NEW ORLEANS LA
700 AM CDT THU JUL 28 2016

NOTE: "FAIR" INDICATES FEW OR NO CLOUDS BELOW 12,000 FEET WITH NO
      SIGNIFICANT WEATHER AND/OR OBSTRUCTIONS TO VISIBILITY.
      SKY/WX - SKY CONDITION AND SIGNIFICANT WEATHER.
      TMP - AIR TEMPERATURE.    DP   - DEWPOINT TEMPERATURE.
      RH  - RELATIVE HUMIDITY.  PRES - PRESSURE.
      HX  - HEAT INDEX.         WCI  - WIND CHILL INDEX.

*  THESE STATIONS ARE NOT NWS OR FAA STATIONS AND ARE NOT UNDER
   NWS QUALITY CONTROL.

LAZ040-048-061>063-065-066-069-281300-
SOUTHEAST LOUISIANA

CITY           SKY/WX    TMP DP  RH WIND       PRES   REMARKS
N.O. AUDUBON   NOT AVBL
N.O. INTL ARPT PTCLDY    80  77  90 S3        30.03S
6HR MIN TEMP:  78; 6HR MAX TEMP:  81;

N.O. LAKEFRONT CLEAR     79  76  90 S5        30.04S FOG
6HR MIN TEMP:  78; 6HR MAX TEMP:  79;

N.O. DOWNTOWN* FAIR      81  77  88 S3        30.05R
6HR MIN TEMP:  80; 6HR MAX TEMP:  82;

RESERVE*       FAIR      79  77  94 CALM      30.04S
6HR MIN TEMP:  74; 6HR MAX TEMP:  79;

SLIDELL        CLEAR     72  71  97 CALM      30.03F
6HR MIN TEMP:  71; 6HR MAX TEMP:  75;

BATON ROUGE    CLOUDY    76  73  91 CALM      30.03S
6HR MIN TEMP:  73; 6HR MAX TEMP:  76;

BOOTHVILLE     CLEAR     80  78  94 SE3       30.04S
6HR MIN TEMP:  79; 6HR MAX TEMP:  80;

BELLE CHASSE   PTCLDY    75  74  96 CALM      30.04R FOG
6HR MIN TEMP:  74; 6HR MAX TEMP:  79;

BOGALUSA*      FAIR      73  69  89 CALM      30.06S
6HR MIN TEMP:  71; 6HR MAX TEMP:  74;

GALLIANO*      MOSUNNY   67  67 100 CALM      30.03S FOG
6HR MIN TEMP:  67; 6HR MAX TEMP:  69;

NEW ROADS*     FAIR      76  74  96 SE5       30.03S
6HR MIN TEMP:  73; 6HR MAX TEMP:  76;

GONZALES*      FAIR      76  76 100 CALM      30.02F
6HR MIN TEMP:  72; 6HR MAX TEMP:  76; 6HR PCP:  0.02;

HAMMOND*       CLEAR     72  68  88 CALM      30.03F
HOUMA*         CLEAR     73  73 100 CALM      30.03F
PORT FOURCHON* MOSUNNY   82  77  83 S5        30.03S

$$

LAZ041-044-053-054-281300-
SOUTHWEST LOUISIANA

CITY           SKY/WX    TMP DP  RH WIND       PRES   REMARKS
LAKE CHARLES   CLOUDY    81  78  91 S3        30.00S
6HR MIN TEMP:  78; 6HR MAX TEMP:  81;

LAFAYETTE      CLOUDY    80  78  94 CALM      30.02S
6HR MIN TEMP:  76; 6HR MAX TEMP:  80;

PATTERSON      PTCLDY    76  75  97 CALM      30.03S
6HR MIN TEMP:  74; 6HR MAX TEMP:  77; 6HR PCP:  0.04;

SALT POINT       N/A     78  77  96 CALM      30.01R
6HR MIN TEMP:  78; 6HR MAX TEMP:  81;

NEW IBERIA     CLOUDY    77  75  93 CALM      30.02S
6HR MIN TEMP:  74; 6HR MAX TEMP:  77;

CHENAULT AIRPK NOT AVBL

$$

LAZ027-028-281300-
CENTRAL LOUISIANA

CITY           SKY/WX    TMP DP  RH WIND       PRES   REMARKS
FORT POLK      CLOUDY    77  76  96 S7        30.01S
6HR MIN TEMP:  76; 6HR MAX TEMP:  77;

ALEXANDRIA INT CLOUDY    76  75  97 SE5       29.99S
6HR MIN TEMP:  75; 6HR MAX TEMP:  76;

ALEXANDRIA     CLOUDY    77  76  96 SW5       30.00F
6HR MIN TEMP:  75; 6HR MAX TEMP:  77;


$$

LAZ001-002-281300-
NORTHWEST LOUISIANA

CITY           SKY/WX    TMP DP  RH WIND       PRES   REMARKS
SHREVEPORT     CLOUDY    78  78 100 S7        29.99R
6HR MIN TEMP:  76; 6HR MAX TEMP:  78; 6HR PCP:  0.03;

BARKSDALE AFB  CLOUDY    78  78 100 SW5       29.99R
6HR MIN TEMP:  75; 6HR MAX TEMP:  78; 6HR PCP:  0.01;

DTN SHREVEPORT CLOUDY    79  76  90 SW8       29.99R
6HR MIN TEMP:  76; 6HR MAX TEMP:  79; 6HR PCP:  0.04;


$$

LAZ014-016-281300-
NORTHEAST LOUISIANA

CITY           SKY/WX    TMP DP  RH WIND       PRES   REMARKS
MONROE         LGT RAIN  76  75  97 SW8       29.98S
6HR MIN TEMP:  76; 6HR MAX TEMP:  77; 6HR PCP:  0.05;

TALLULAH       LGT RAIN  77  74  90 VRB3      29.99S
6HR MIN TEMP:  76; 6HR MAX TEMP:  77; 6HR PCP:  0.04;


$$





USA.gov is the U.S. government's official web portal to all federal, state and local government web resources and services.